User: anonymous   Login
Location: Unspecified
(0.0000°N, 0.0000°E)
Time: 16:50:56
(UTC+02:00)
Language:

Meteor 1-31 Rocket - Orbit

View from above orbital plane
View from above orbital plane
View from above satellite
View from above satellite

Ground track
Ground track

The orbit data is extracted from the following two-line orbital elements,

1 12586U 81065B   16178.87750689  .00000281  00000-0  21410-4 0  9998
2 12586  97.4581 163.1447 0018887 346.2188  13.8523 15.09493740902890
Epoch (UTC): 26 June 2016 21:03:36
Eccentricity: 0.0018887
inclination: 97.4581°
perigee height: 524 km
apogee height: 551 km
right ascension of ascending node: 163.1447°
argument of perigee: 346.2188°
revolutions per day: 15.09493740
mean anomaly at epoch: 13.8523°
orbit number at epoch: 90289

The dashed part of the orbit path shows where the satellite is in the earth's shadow,  

DLR